Location: Vinland
(47.7731°N, 122.6974°W)
Time: 17:48:55
(UTC+00:00)

Vanguard 1 Rocket - Pass Details

Date: 29 March 2023
Orbit: 654 x 4221 km, 34.3° (Epoch: 29 May)

Event Time Altitude Azimuth Distance (km) Brightness Sun altitude
Rises 06:01:57 0° 233° (SW) 8,449 12.4 -31.2°
Reaches altitude 10° 06:08:20 10° 228° (SW) 7,397 12.0 -31.8°
Enters shadow 06:29:50 46° 172° (S) 4,158 10.2 -33.9°
